STARLINK-1274 (45387 NORAD) Tracking and Keplerian Element Data

This shows tracking and keplerian element data for the satellite.

Feedback or suggestion? Click here.




ElementValue
Catalog45387
NameSTARLINK-1274
Epoch Orbit1853
Epoch Day193.91667824
Epoch Year2020
RAAN61.1453
Inclination53.0006
Eccentricity0.0001476
Argument of Perigee94.7438
Mean Anonmoly17.4817
Mean Motion15.02501394
Decay Rate-0.00462068
L11 45387U 20019AD 20193.91667824 -.00462068 00000-0 -36366-1 0 9990
L22 45387 53.0006 61.1453 0001476 94.7438 17.4817 15.02501394 18531

Live tracking and technical data element details for STARLINK-1274 (NORAD 45387). STARLINK-1274 can be tracked NOW for your location showing map with azimuth and elevation plus other details from your city location.

Track the satellite on the map from your city or location and see movement details for azimuth, elevation, latitude, longitude, range, height, and movement on the map or in text.







IsCatalogInMostPopularTable: catalog: 45387, numindb: 21
Update: records affected: 1



GetName: 45387 STARLINK-1274

Hit Count: updated at: Mon, 13 Jul 2020 04:13:39 GMT